STARLINK-1677, 46576

Orbit data source: Space-Track

STARLINK-1677, 46576 is a payload satellite owned by SpaceX/Seattle (US) in LEO that was launched on Tue, 06 Oct 2020 UTC via an FALCON 9 launch vehicle from the Air Force Eastern Test Range (AFETR). Payload-class satellites include a variety of spacecraft equipped with specific instruments for various scientific and technological missions. These include communications satellites like Starlink; space stations such as the ISS; scientific satellites like the Hubble; Earth observation satellites from companies like Planet Labs, Umbra, and HawkEye 360; GPS; miniature CubeSats for education and research; and military/defense satellites.

Loading next visibility...
Identifier
46576, 2020-070AW
Orbit
LEO
Last TLE update
2 hours ago
Origin
Manufacturer
SpaceX/Seattle
Mission
Operational Commercial Communications
Bus & Motor
STARLINK, Unknown motor
Mass
260 kg wet, ~248 kg dry
Launch date (UTC)
2020-10-06 (5 years ago)
Launch vehicle
FALCON 9
Launch site
Air Force Eastern Test Range (AFETR)
Object type
Payload
Rocket body
Debris
Shape & HBR
Box + 1 Pan, 8.86 m
Radar Cross Section
13.562 m², Large (>1 m²)

Expand to show TLE details & history

TLE from 2 hours ago
0 STARLINK-1677
1 46576U 20070AW  25189.23923052 -.00007647  00000-0 -49594-3 0  9998
2 46576  53.0535 179.0031 0001419  82.8500 277.2650 15.06332793262873
Epoch: 2025-07-08T05:44Z
TLE epoch observation values (Epoch: 2025-07-08T05:44:29.516Z)
Latitude
-0.00006°
Longitude
166.443°
Altitude
548.172 km
Speed
7.589 km/s
True Right ascension
11h 56m 00s
True Declination
0° 00' 00"
Sunlit
Object was in daylight at epoch
Visualization orbit readout
Latitude
-1.55664°
Longitude
-12.84055°
Altitude
548.665 km
Speed
7.589 km/s
Apparent Right ascension
02h 55m 17s
Apparent Declination
-36° 02' 29"
Sunlit
Object is in daylight
Visualization observer readout
Local Sidereal Time
20:13:55
Azimuth
114.238° SE
Elevation
-29.267°
Doppler factor
1
Orbital elements
Apogee altitude
548.671 km
Perigee altitude
546.706 km
Semi-major axis
6,925.825 km
Eccentricity
0.00014
Inclination
53.0535°
RAAN
179.0031°
Arg. of periapsis
82.85°
True anomaly
Unknown
Mean anomaly
277.265°
Eccentric anomaly
Unknown
Mean motion
3.76561 °/min
Orbital period
95.6 mins
BSTAR
-0.00049594
Loading maneuver chart data...
Loading SW <> Apogee altitude chart data...
Loading historical data...
Loading historical data...
Loading historical data...
Loading historical data...
Loading historical data...
Loading historical data...
Loading historical data...

STARLINK-1677 Visibility forecast

Observer location: undefined°, undefined°

Span
Click to sort rows by Start time (UTC) header in descending order
Start Az.
Max El. time (UTC)
Max El. Az.
Max El.
End time (UTC)
End Az.
7 mins2025-07-08 09:26:15.602Z303.197° NW2025-07-08 09:30:15.602Z189.272° SSW40.58°2025-07-08 09:33:15.602Z143.859° SSE
4 mins2025-07-09 01:01:15.602Z162.212° S2025-07-09 01:03:15.602Z118.546° SE21.747°2025-07-09 01:05:15.602Z83.531° E
6 mins2025-07-09 02:39:15.602Z255.771° W2025-07-09 02:42:15.602Z333.689° NNW36.628°2025-07-09 02:45:15.602Z37.524° NE
5 mins2025-07-09 07:42:15.602Z347.248° N2025-07-09 07:44:15.602Z37.986° NE26.484°2025-07-09 07:47:15.602Z89.005° E
|